| time (UTC) | temp F | wind direction | speed MPH | gust MPH | rain 1hr in | rain 24hr in | rain mn in | humidity % | barometer mb |
| 20260506152733 | 64 | 73 | 1.0 | 2.0 | 0.00 | 0.00 | 0.57 | 99 | |
| 20260506151533 | 64 | 90 | 1.0 | 1.0 | 0.00 | 0.00 | 0.57 | 99 | |
| 20260506150933 | 64 | 190 | 1.0 | 1.0 | 0.00 | 0.00 | 0.57 | 99 | |
| 20260506150311 | 64 | 48 | 0.0 | 0.0 | 0.00 | 0.00 | 0.57 | 99 | |
| 20260506145750 | 64 | 66 | 1.0 | 1.0 | 0.00 | 0.00 | 0.57 | 99 | |
| 20260506145133 | 64 | 57 | 1.0 | 1.0 | 0.00 | 0.00 | 0.57 | 99 | |
| 20260506144538 | 64 | 143 | 0.0 | 0.0 | 0.00 | 0.00 | 0.57 | 99 | |
| 20260506143929 | 64 | 222 | 0.0 | 1.0 | 0.00 | 0.00 | 0.57 | 99 | |
| 20260506143317 | 64 | 356 | 1.0 | 1.0 | 0.00 | 0.00 | 0.57 | 99 | |
| 20260506142716 | 64 | 353 | 0.0 | 2.0 | 0.00 | 0.00 | 0.57 | 99 | |
| 20260506142117 | 64 | 63 | 1.0 | 2.0 | 0.00 | 0.00 | 0.57 | 99 | |
| 20260506141523 | 64 | 11 | 2.0 | 2.0 | 0.00 | 0.00 | 0.57 | 99 | |
| 20260506140935 | 64 | 90 | 1.0 | 1.0 | 0.00 | 0.00 | 0.57 | 99 | |
| 20260506140343 | 64 | 20 | 2.0 | 2.0 | 0.00 | 0.00 | 0.57 | 99 | |
| 20260506135734 | 64 | 326 | 0.0 | 1.0 | 0.00 | 0.00 | 0.57 | 99 | |
| 20260506135139 | 63 | 68 | 1.0 | 2.0 | 0.00 | 0.00 | 0.57 | 99 | |
| 20260506134512 | 63 | 91 | 2.0 | 2.0 | 0.00 | 0.00 | 0.57 | 99 | |
| 20260506133920 | 62 | 112 | 2.0 | 3.0 | 0.00 | 0.00 | 0.57 | 99 | |
| 20260506133350 | 62 | 164 | 0.0 | 2.0 | 0.00 | 0.00 | 0.57 | 99 | |
| 20260506132744 | 62 | 6 | 5.0 | 7.0 | 0.00 | 0.00 | 0.57 | 99 | |
| 20260506132120 | 61 | 77 | 1.0 | 2.0 | 0.00 | 0.00 | 0.57 | 99 | |
| 20260506131514 | 61 | 113 | 2.0 | 3.0 | 0.00 | 0.00 | 0.57 | 99 | |
| 20260506130920 | 60 | 105 | 2.0 | 3.0 | 0.00 | 0.00 | 0.57 | 99 | |
| 20260506125727 | 60 | 88 | 0.0 | 2.0 | 0.00 | 0.00 | 0.57 | 99 | |
| 20260506125146 | 60 | 115 | 1.0 | 2.0 | 0.00 | 0.00 | 0.57 | 99 | |
| 20260506124511 | 60 | 60 | 2.0 | 2.0 | 0.00 | 0.00 | 0.57 | 99 | |
| 20260506123932 | 60 | 85 | 1.0 | 2.0 | 0.00 | 0.00 | 0.57 | 99 | |
| 20260506123320 | 60 | 94 | 1.0 | 2.0 | 0.00 | 0.00 | 0.57 | 99 | |
| 20260506122715 | 60 | 106 | 1.0 | 2.0 | 0.00 | 0.00 | 0.57 | 99 | |
| 20260506122149 | 60 | 95 | 1.0 | 1.0 | 0.00 | 0.00 | 0.57 | 99 | |
| 20260506121518 | 60 | 137 | 1.0 | 3.0 | 0.00 | 0.00 | 0.57 | 99 | |
| 20260506120310 | 59 | 102 | 2.0 | 2.0 | 0.00 | 0.00 | 0.57 | 99 | |
| 20260506115715 | 59 | 91 | 0.0 | 2.0 | 0.00 | 0.00 | 0.57 | 99 | |
| 20260506115122 | 59 | 119 | 1.0 | 3.0 | 0.00 | 0.00 | 0.57 | 99 | |
| 20260506114533 | 59 | 97 | 1.0 | 2.0 | 0.00 | 0.00 | 0.56 | 99 | |
| 20260506113948 | 59 | 89 | 2.0 | 3.0 | 0.00 | 0.00 | 0.52 | 99 | |
| 20260506112733 | 58 | 104 | 1.0 | 2.0 | 0.00 | 0.00 | 0.49 | 99 | |
| 20260506111515 | 58 | 99 | 1.0 | 2.0 | 0.00 | 0.00 | 0.48 | 99 | |
| 20260506110913 | 58 | 105 | 2.0 | 2.0 | 0.00 | 0.00 | 0.47 | 99 | |
| 20260506105711 | 58 | 103 | 2.0 | 2.0 | 0.00 | 0.00 | 0.47 | 99 | |
| 20260506105146 | 58 | 103 | 1.0 | 2.0 | 0.00 | 0.00 | 0.47 | 99 | |
| 20260506103921 | 58 | 92 | 2.0 | 2.0 | 0.00 | 0.00 | 0.47 | 99 | |
| 20260506103351 | 58 | 91 | 2.0 | 2.0 | 0.00 | 0.00 | 0.47 | 99 | |
| 20260506102708 | 58 | 91 | 2.0 | 3.0 | 0.00 | 0.00 | 0.47 | 99 | |
| 20260506102109 | 58 | 103 | 1.0 | 2.0 | 0.00 | 0.00 | 0.47 | 99 | |
| 20260506100950 | 58 | 92 | 1.0 | 1.0 | 0.00 | 0.00 | 0.46 | 99 | |
| 20260506095711 | 58 | 118 | 1.0 | 2.0 | 0.00 | 0.00 | 0.46 | 99 | |
| 20260506095149 | 58 | 91 | 1.0 | 2.0 | 0.00 | 0.00 | 0.44 | 99 | |
| 20260506094538 | 58 | 100 | 0.0 | 1.0 | 0.00 | 0.00 | 0.42 | 99 | |
| 20260506093321 | 58 | 71 | 1.0 | 1.0 | 0.00 | 0.00 | 0.41 | 99 | |
| 20260506092747 | 58 | 343 | 0.0 | 0.0 | 0.00 | 0.00 | 0.40 | 99 | |
| 20260506092113 | 58 | 113 | 0.0 | 1.0 | 0.00 | 0.00 | 0.37 | 99 | |
| 20260506090323 | 58 | 115 | 0.0 | 1.0 | 0.00 | 0.00 | 0.30 | 99 | |
| 20260506085736 | 58 | 105 | 0.0 | 2.0 | 0.00 | 0.00 | 0.28 | 99 | |
| 20260506085114 | 58 | 101 | 0.0 | 0.0 | 0.00 | 0.00 | 0.27 | 99 | |
| 20260506083926 | 58 | 95 | 0.0 | 1.0 | 0.00 | 0.00 | 0.26 | 99 | |
| 20260506083337 | 58 | 94 | 0.0 | 1.0 | 0.00 | 0.00 | 0.25 | 99 | |
| 20260506082737 | 58 | 104 | 0.0 | 1.0 | 0.00 | 0.00 | 0.21 | 99 | |
| 20260506082142 | 58 | 105 | 0.0 | 1.0 | 0.00 | 0.00 | 0.20 | 99 | |
| 20260506081514 | 59 | 104 | 0.0 | 0.0 | 0.00 | 0.00 | 0.19 | 99 | |
| 20260506080930 | 59 | 106 | 0.0 | 1.0 | 0.00 | 0.00 | 0.18 | 98 | |
| 20260506080318 | 59 | 86 | 0.0 | 1.0 | 0.00 | 0.00 | 0.15 | 98 | |
| 20260506073309 | 62 | 247 | 0.0 | 1.0 | 0.00 | 0.00 | 0.01 | 85 | |
| 20260506072709 | 63 | 117 | 1.0 | 2.0 | 0.00 | 0.00 | 0.00 | 80 | |
| 20260506072143 | 63 | 108 | 1.0 | 2.0 | 0.00 | 0.00 | 0.00 | 77 | |
| 20260506071550 | 63 | 153 | 2.0 | 4.0 | 0.00 | 0.00 | 0.00 | 79 | |
| 20260506070908 | 62 | 82 | 1.0 | 3.0 | 0.00 | 0.00 | 0.00 | 80 | |
| 20260506070330 | 62 | 26 | 1.0 | 2.0 | 0.00 | 0.00 | 0.00 | 80 | |
| 20260506062127 | 61 | 103 | 2.0 | 3.0 | 0.00 | 0.00 | 0.00 | 83 | |
| 20260506061510 | 61 | 162 | 0.0 | 2.0 | 0.00 | 0.00 | 0.00 | 83 | |
| 20260506060342 | 60 | 92 | 1.0 | 3.0 | 0.00 | 0.00 | 0.00 | 84 | |
| 20260506050949 | 60 | 76 | 1.0 | 2.0 | 0.00 | 0.00 | 0.00 | 84 | |
| 20260506050336 | 60 | 105 | 2.0 | 3.0 | 0.00 | 0.00 | 0.00 | 85 | |
| 20260506044516 | 61 | 239 | 1.0 | 2.0 | 0.00 | 0.00 | 0.00 | 82 | |
| 20260506043920 | 61 | 136 | 0.0 | 2.0 | 0.00 | 0.00 | 0.00 | 81 | |
| 20260506042725 | 62 | 114 | 1.0 | 2.0 | 0.00 | 0.00 | 0.00 | 81 | |
| 20260506042128 | 61 | 107 | 1.0 | 1.0 | 0.00 | 0.00 | 0.00 | 81 | |
| 20260506041543 | 62 | 97 | 1.0 | 1.0 | 0.00 | 0.00 | 0.00 | 81 | |
| 20260506040349 | 62 | 92 | 1.0 | 2.0 | 0.00 | 0.00 | 0.00 | 81 | |
| 20260506035712 | 62 | 194 | 1.0 | 1.0 | 0.00 | 0.00 | 0.00 | 80 | |
| 20260506035141 | 61 | 122 | 1.0 | 1.0 | 0.00 | 0.00 | 0.00 | 80 | |
| 20260506033949 | 62 | 194 | 1.0 | 2.0 | 0.00 | 0.00 | 0.00 | 81 | |
| 20260506033317 | 61 | 113 | 0.0 | 1.0 | 0.00 | 0.00 | 0.00 | 81 | |
| 20260506032715 | 61 | 70 | 0.0 | 1.0 | 0.00 | 0.00 | 0.00 | 81 | |
| 20260506032147 | 62 | 229 | 0.0 | 1.0 | 0.00 | 0.00 | 0.00 | 81 | |
| 20260506031550 | 62 | 110 | 1.0 | 2.0 | 0.00 | 0.00 | 0.00 | 78 | |
| 20260506030915 | 62 | 191 | 0.0 | 1.0 | 0.00 | 0.00 | 0.00 | 81 | |
| 20260506030347 | 62 | 203 | 0.0 | 0.0 | 0.00 | 0.00 | 0.00 | 79 | |
| 20260506025746 | 62 | 145 | 1.0 | 2.0 | 0.00 | 0.00 | 0.00 | 80 | |
| 20260506025129 | 63 | 15 | 0.0 | 0.0 | 0.00 | 0.00 | 0.00 | 76 | |
| 20260506024518 | 63 | 75 | 2.0 | 3.0 | 0.00 | 0.00 | 0.00 | 77 | |
| 20260506023916 | 62 | 147 | 0.0 | 2.0 | 0.00 | 0.00 | 0.00 | 76 | |
| 20260506023351 | 63 | 190 | 0.0 | 2.0 | 0.00 | 0.00 | 0.00 | 79 | |
| 20260506022716 | 62 | 187 | 0.0 | 1.0 | 0.00 | 0.00 | 0.00 | 81 | |
| 20260506022143 | 62 | 187 | 1.0 | 1.0 | 0.00 | 0.00 | 0.00 | 80 | |
| 20260506021545 | 62 | 183 | 1.0 | 1.0 | 0.00 | 0.00 | 0.00 | 82 | |
| 20260506020946 | 62 | 180 | 0.0 | 1.0 | 0.00 | 0.00 | 0.00 | 81 | |
| 20260506020334 | 63 | 165 | 0.0 | 1.0 | 0.00 | 0.00 | 0.00 | 81 | |
| 20260506015719 | 63 | 191 | 0.0 | 1.0 | 0.00 | 0.00 | 0.00 | 81 | |
| 20260506015150 | 63 | 192 | 0.0 | 1.0 | 0.00 | 0.00 | 0.00 | 81 | |
| 20260506014532 | 63 | 191 | 0.0 | 1.0 | 0.00 | 0.00 | 0.00 | 80 | |
| 20260506013937 | 63 | 191 | 0.0 | 0.0 | 0.00 | 0.00 | 0.00 | 80 | |
| 20260506013345 | 64 | 191 | 0.0 | 0.0 | 0.00 | 0.00 | 0.00 | 80 | |
| 20260506012147 | 64 | 191 | 0.0 | 1.0 | 0.00 | 0.00 | 0.00 | 78 | |
| 20260506010911 | 64 | 192 | 0.0 | 1.0 | 0.00 | 0.00 | 0.00 | 78 | |
| 20260506003348 | 65 | 181 | 0.0 | 0.0 | 0.00 | 0.00 | 0.00 | 75 | |
| 20260506002745 | 65 | 173 | 0.0 | 1.0 | 0.00 | 0.00 | 0.00 | 74 | |
| 20260506002128 | 66 | 161 | 1.0 | 1.0 | 0.00 | 0.00 | 0.00 | 74 | |
| 20260506001517 | 66 | 182 | 0.0 | 1.0 | 0.00 | 0.00 | 0.00 | 76 | |
| 20260506000919 | 66 | 184 | 0.0 | 0.0 | 0.00 | 0.00 | 0.00 | 73 | |
| 20260506000349 | 67 | 184 | 0.0 | 0.0 | 0.00 | 0.00 | 0.00 | 73 | |
| 20260505235739 | 67 | 196 | 0.0 | 0.0 | 0.00 | 0.00 | 0.00 | 72 | |
| 20260505235119 | 67 | 194 | 0.0 | 1.0 | 0.00 | 0.00 | 0.00 | 72 | |
| 20260505234527 | 68 | 196 | 0.0 | 0.0 | 0.00 | 0.00 | 0.00 | 71 | |
| 20260505233341 | 69 | 196 | 0.0 | 0.0 | 0.00 | 0.00 | 0.00 | 68 | |
| 20260505232713 | 69 | 196 | 0.0 | 1.0 | 0.00 | 0.00 | 0.00 | 67 | |
| 20260505232150 | 70 | 114 | 0.0 | 1.0 | 0.00 | 0.00 | 0.00 | 66 | |
| 20260505231552 | 70 | 221 | 0.0 | 1.0 | 0.00 | 0.00 | 0.00 | 64 | |
| 20260505230932 | 70 | 200 | 0.0 | 1.0 | 0.00 | 0.00 | 0.00 | 64 | |
| 20260505230345 | 71 | 236 | 1.0 | 2.0 | 0.00 | 0.00 | 0.00 | 63 | |
| 20260505225114 | 73 | 202 | 1.0 | 2.0 | 0.00 | 0.00 | 0.00 | 60 | |
| 20260505224513 | 73 | 183 | 1.0 | 2.0 | 0.00 | 0.00 | 0.00 | 51 | |
| 20260505223921 | 73 | 184 | 0.0 | 1.0 | 0.00 | 0.00 | 0.00 | 53 | |
| 20260505223312 | 74 | 53 | 0.0 | 1.0 | 0.00 | 0.00 | 0.00 | 52 | |
| 20260505222747 | 77 | 181 | 0.0 | 1.0 | 0.00 | 0.00 | 0.00 | 49 | |
| 20260505222114 | 76 | 258 | 1.0 | 3.0 | 0.00 | 0.00 | 0.00 | 40 | |
| 20260505221516 | 78 | 91 | 2.0 | 2.0 | 0.00 | 0.00 | 0.00 | 41 | |
| 20260505220313 | 78 | 175 | 0.0 | 1.0 | 0.00 | 0.00 | 0.00 | 48 | |
| 20260505215741 | 82 | 116 | 2.0 | 3.0 | 0.00 | 0.00 | 0.00 | 38 | |
| 20260505215149 | 80 | 49 | 0.0 | 2.0 | 0.00 | 0.00 | 0.00 | 39 | |
| 20260505214545 | 78 | 189 | 0.0 | 2.0 | 0.00 | 0.00 | 0.00 | 47 | |
| 20260505213941 | 77 | 71 | 0.0 | 2.0 | 0.00 | 0.00 | 0.00 | 43 | |
| 20260505213316 | 77 | 103 | 1.0 | 2.0 | 0.00 | 0.00 | 0.00 | 50 | |
| 20260505212742 | 77 | 170 | 0.0 | 1.0 | 0.00 | 0.00 | 0.00 | 40 | |
| 20260505212125 | 77 | 325 | 0.0 | 2.0 | 0.00 | 0.00 | 0.00 | 40 | |
| 20260505211527 | 78 | 39 | 1.0 | 1.0 | 0.00 | 0.00 | 0.00 | 42 | |
| 20260505210344 | 79 | 292 | 6.0 | 7.0 | 0.00 | 0.00 | 0.00 | 40 | |
| 20260505205752 | 79 | 16 | 2.0 | 4.0 | 0.00 | 0.00 | 0.00 | 37 | |
| 20260505205138 | 79 | 154 | 1.0 | 4.0 | 0.00 | 0.00 | 0.00 | 39 | 982.3 |
| 20260505204543 | 78 | 317 | 6.0 | 7.0 | 0.00 | 0.00 | 0.00 | 39 | |
| 20260505203317 | 77 | 175 | 3.0 | 7.0 | 0.00 | 0.00 | 0.00 | 38 | 982.3 |
| 20260505202754 | 78 | 300 | 4.0 | 6.0 | 0.00 | 0.00 | 0.00 | 39 | 982.3 |
| 20260505202112 | 77 | 63 | 3.0 | 6.0 | 0.00 | 0.00 | 0.00 | 39 | 982.3 |
| 20260505201533 | 77 | 53 | 4.0 | 4.0 | 0.00 | 0.00 | 0.00 | 39 | 982.3 |
| 20260505200940 | 77 | 24 | 0.0 | 2.0 | 0.00 | 0.00 | 0.00 | 42 | 982.7 |
| 20260505195709 | 77 | 336 | 5.0 | 11.0 | 0.00 | 0.00 | 0.00 | 38 | 982.7 |
| 20260505194543 | 78 | 359 | 3.0 | 6.0 | 0.00 | 0.00 | 0.00 | 38 | 983.0 |
| 20260505193940 | 78 | 307 | 1.0 | 1.0 | 0.00 | 0.00 | 0.00 | 42 | 983.0 |
| 20260505193332 | 77 | 314 | 1.0 | 3.0 | 0.00 | 0.00 | 0.00 | 36 | 983.0 |
| 20260505192115 | 77 | 346 | 4.0 | 9.0 | 0.00 | 0.00 | 0.00 | 36 | 983.4 |
| 20260505190932 | 78 | 310 | 1.0 | 3.0 | 0.00 | 0.00 | 0.00 | 41 | 983.0 |
| 20260505190336 | 78 | 0 | 1.0 | 2.0 | 0.00 | 0.00 | 0.00 | 38 | 983.4 |
| 20260505185752 | 78 | 308 | 2.0 | 3.0 | 0.00 | 0.00 | 0.00 | 43 | 983.4 |
| 20260505185140 | 78 | 12 | 4.0 | 6.0 | 0.00 | 0.00 | 0.00 | 39 | 983.7 |
| 20260505184551 | 78 | 161 | 2.0 | 6.0 | 0.00 | 0.00 | 0.00 | 40 | 983.7 |
| 20260505183341 | 77 | 223 | 2.0 | 3.0 | 0.00 | 0.00 | 0.00 | 41 | 983.7 |
| 20260505181514 | 76 | 234 | 2.0 | 4.0 | 0.00 | 0.00 | 0.00 | 41 | 984.0 |
| 20260505180926 | 76 | 171 | 4.0 | 8.0 | 0.00 | 0.00 | 0.00 | 43 | 984.0 |
| 20260505180313 | 76 | 40 | 1.0 | 4.0 | 0.00 | 0.00 | 0.00 | 46 | 984.4 |
| 20260505175713 | 76 | 69 | 4.0 | 8.0 | 0.00 | 0.00 | 0.00 | 41 | 984.4 |
| 20260505175125 | 76 | 96 | 3.0 | 9.0 | 0.00 | 0.00 | 0.00 | 43 | 984.4 |
| 20260505174525 | 76 | 285 | 0.0 | 4.0 | 0.00 | 0.00 | 0.00 | 41 | 984.4 |
| 20260505173933 | 76 | 220 | 1.0 | 3.0 | 0.00 | 0.00 | 0.00 | 42 | 984.4 |
| 20260505173350 | 75 | 29 | 2.0 | 4.0 | 0.00 | 0.00 | 0.00 | 47 | 984.4 |
| 20260505172720 | 75 | 326 | 4.0 | 7.0 | 0.00 | 0.00 | 0.00 | 41 | 984.7 |
| 20260505172131 | 74 | 320 | 4.0 | 9.0 | 0.00 | 0.00 | 0.00 | 44 | 984.7 |
| 20260505171517 | 74 | 334 | 3.0 | 7.0 | 0.00 | 0.00 | 0.00 | 43 | 984.4 |
| 20260505170939 | 74 | 353 | 8.0 | 11.0 | 0.00 | 0.00 | 0.00 | 45 | 984.4 |
| 20260505170328 | 74 | 357 | 6.0 | 14.0 | 0.00 | 0.00 | 0.00 | 43 | 984.7 |
| 20260505165708 | 75 | 311 | 6.0 | 7.0 | 0.00 | 0.00 | 0.00 | 45 | 984.4 |
| 20260505165110 | 76 | 167 | 3.0 | 9.0 | 0.00 | 0.00 | 0.00 | 45 | 984.4 |
| 20260505164512 | 76 | 236 | 2.0 | 3.0 | 0.00 | 0.00 | 0.00 | 42 | 984.7 |
| 20260505163952 | 74 | 332 | 0.0 | 6.0 | 0.00 | 0.00 | 0.00 | 47 | 984.7 |
| 20260505163316 | 74 | 77 | 2.0 | 4.0 | 0.00 | 0.00 | 0.00 | 45 | 985.1 |
| 20260505162718 | 75 | 215 | 4.0 | 8.0 | 0.00 | 0.00 | 0.00 | 44 | 985.1 |
| 20260505162148 | 75 | 290 | 3.0 | 10.0 | 0.00 | 0.00 | 0.00 | 44 | 985.1 |
| 20260505161535 | 75 | 352 | 4.0 | 7.0 | 0.00 | 0.00 | 0.00 | 43 | 985.1 |
| 20260505160921 | 75 | 358 | 2.0 | 6.0 | 0.00 | 0.00 | 0.00 | 48 | 985.1 |
| 20260505160344 | 74 | 22 | 3.0 | 6.0 | 0.00 | 0.00 | 0.00 | 46 | 985.1 |
| 20260505153319 | 74 | 337 | 0.0 | 3.0 | 0.00 | 0.00 | 0.00 | 51 | 985.4 |